TimeCST,TemperatureF,Dew PointF,Humidity,Sea Level PressureIn,VisibilityMPH,Wind Direction,Wind SpeedMPH,Gust SpeedMPH,PrecipitationIn,Events,Conditions,WindDirDegrees,DateUTC
12:15 AM,7.9,-4.0,58,30.26,10.0,SW,3.5,-,N/A,,Overcast,230,2013-01-23 06:15:00
12:35 AM,8.6,-4.0,57,30.25,10.0,West,6.9,-,N/A,,Overcast,270,2013-01-23 06:35:00
12:55 AM,9.0,-4.2,55,30.25,10.0,West,5.8,-,N/A,,Overcast,270,2013-01-23 06:55:00
1:15 AM,9.3,-4.0,55,30.25,10.0,West,6.9,-,N/A,,Overcast,260,2013-01-23 07:15:00
1:35 AM,9.3,-4.4,54,30.25,10.0,West,5.8,-,N/A,,Overcast,260,2013-01-23 07:35:00
1:55 AM,9.5,-4.5,53,30.25,10.0,West,6.9,-,N/A,,Overcast,260,2013-01-23 07:55:00
2:15 AM,9.9,-4.7,52,30.25,10.0,West,6.9,-,N/A,,Overcast,260,2013-01-23 08:15:00
2:35 AM,10.0,-4.7,51,30.25,10.0,West,8.1,-,N/A,,Overcast,260,2013-01-23 08:35:00
2:55 AM,10.0,-4.4,52,30.24,10.0,SW,4.6,-,N/A,,Overcast,230,2013-01-23 08:55:00
3:40 AM,10.4,-4.0,52,30.23,10.0,WSW,3.5,-,N/A,,Overcast,240,2013-01-23 09:40:00
3:55 AM,10.4,-4.0,52,30.22,10.0,WSW,4.6,-,N/A,,Overcast,240,2013-01-23 09:55:00
4:15 AM,10.8,-3.1,54,30.22,10.0,WSW,4.6,-,N/A,,Overcast,240,2013-01-23 10:15:00
4:35 AM,10.9,-2.9,54,30.21,10.0,SW,4.6,-,N/A,,Overcast,230,2013-01-23 10:35:00
4:55 AM,11.3,-2.4,54,30.21,10.0,SW,3.5,-,N/A,,Overcast,230,2013-01-23 10:55:00
5:15 AM,11.3,-1.7,56,30.21,10.0,WSW,3.5,-,N/A,,Overcast,240,2013-01-23 11:15:00
5:35 AM,11.7,-1.3,56,30.20,10.0,SW,5.8,-,N/A,,Overcast,220,2013-01-23 11:35:00
6:35 AM,12.0,1.9,64,30.19,5.0,SW,4.6,-,N/A,,Overcast,230,2013-01-23 12:35:00
6:55 AM,11.7,3.0,68,30.18,4.0,SW,3.5,-,N/A,,Overcast,220,2013-01-23 12:55:00
7:15 AM,11.7,4.3,72,30.18,3.0,NW,4.6,-,N/A,,Overcast,310,2013-01-23 13:15:00
7:35 AM,11.7,5.0,75,30.18,2.0,SW,5.8,-,N/A,,Overcast,220,2013-01-23 13:35:00
7:55 AM,11.8,5.9,77,30.18,1.5,SSW,5.8,-,N/A,,Overcast,210,2013-01-23 13:55:00
8:15 AM,12.2,6.4,78,30.18,1.5,SW,6.9,-,N/A,,Overcast,230,2013-01-23 14:15:00
8:35 AM,12.4,6.3,76,30.18,2.0,SW,3.5,-,N/A,,Overcast,220,2013-01-23 14:35:00
8:55 AM,13.1,6.4,75,30.17,3.0,SW,4.6,-,N/A,,Overcast,230,2013-01-23 14:55:00
9:15 AM,13.3,6.4,74,30.18,2.5,SSW,4.6,-,N/A,,Overcast,210,2013-01-23 15:15:00
9:35 AM,13.8,6.4,72,30.17,3.0,WSW,8.1,-,N/A,,Overcast,250,2013-01-23 15:35:00
9:55 AM,14.0,6.6,72,30.17,3.0,SSW,8.1,-,N/A,,Overcast,210,2013-01-23 15:55:00
10:15 AM,14.9,7.2,71,30.17,3.0,SSW,8.1,-,N/A,,Overcast,210,2013-01-23 16:15:00
10:35 AM,15.6,7.5,70,30.17,3.0,SW,6.9,-,N/A,,Overcast,220,2013-01-23 16:35:00
10:55 AM,16.2,8.1,70,30.17,3.0,SW,4.6,-,N/A,,Overcast,230,2013-01-23 16:55:00
11:15 AM,16.7,9.0,72,30.15,2.0,SW,5.8,-,N/A,,Overcast,230,2013-01-23 17:15:00
11:35 AM,17.4,9.5,71,30.13,1.8,WSW,9.2,-,N/A,,Overcast,240,2013-01-23 17:35:00
11:55 AM,17.6,8.8,68,30.12,4.0,WSW,9.2,17.3,N/A,,Overcast,240,2013-01-23 17:55:00
12:15 PM,18.3,9.3,68,30.10,5.0,SW,10.4,-,N/A,,Overcast,230,2013-01-23 18:15:00
12:35 PM,18.9,9.5,67,30.08,7.0,SW,10.4,-,N/A,,Overcast,220,2013-01-23 18:35:00
12:55 PM,19.4,9.5,65,30.07,7.0,SW,10.4,-,N/A,,Overcast,230,2013-01-23 18:55:00
1:15 PM,19.4,10.2,68,30.08,10.0,West,11.5,17.3,N/A,,Overcast,260,2013-01-23 19:15:00
1:35 PM,18.9,9.9,68,30.08,5.0,WSW,10.4,-,N/A,,Overcast,250,2013-01-23 19:35:00
1:55 PM,19.4,11.1,70,30.06,3.0,WSW,10.4,-,N/A,,Overcast,250,2013-01-23 19:55:00
2:15 PM,19.6,10.9,69,30.06,4.0,WSW,10.4,-,N/A,,Overcast,250,2013-01-23 20:15:00
2:35 PM,19.9,11.1,69,30.06,5.0,WSW,9.2,-,N/A,,Overcast,250,2013-01-23 20:35:00
2:55 PM,20.3,11.3,68,30.06,10.0,West,11.5,-,N/A,,Overcast,260,2013-01-23 20:55:00
3:15 PM,19.9,11.3,69,30.07,10.0,West,9.2,-,N/A,,Overcast,260,2013-01-23 21:15:00
3:35 PM,19.9,12.0,71,30.07,4.0,West,8.1,-,N/A,,Overcast,280,2013-01-23 21:35:00
3:55 PM,19.9,13.1,75,30.08,4.0,West,9.2,-,N/A,,Overcast,280,2013-01-23 21:55:00
4:15 PM,19.8,13.1,75,30.08,4.0,West,8.1,-,N/A,,Overcast,280,2013-01-23 22:15:00
4:35 PM,19.8,13.8,78,30.08,2.5,WNW,5.8,-,N/A,,Overcast,290,2013-01-23 22:35:00
4:55 PM,19.6,13.3,77,30.08,5.0,WNW,10.4,-,N/A,,Overcast,290,2013-01-23 22:55:00
5:15 PM,18.9,13.8,81,30.10,0.8,NW,10.4,16.1,N/A,,Overcast,320,2013-01-23 23:15:00
5:35 PM,18.3,9.0,67,30.11,10.0,NW,15.0,20.7,N/A,,Mostly Cloudy,310,2013-01-23 23:35:00
5:55 PM,17.4,5.2,59,30.13,10.0,NW,18.4,24.2,N/A,,Scattered Clouds,320,2013-01-23 23:55:00
6:15 PM,17.4,6.6,63,30.15,10.0,NW,15.0,27.6,N/A,,Mostly Cloudy,320,2013-01-24 00:15:00
6:35 PM,17.2,9.9,73,30.17,5.0,NNW,20.7,-,N/A,,Overcast,340,2013-01-24 00:35:00
6:55 PM,14.9,4.8,64,30.19,5.0,NNW,18.4,27.6,N/A,,Mostly Cloudy,330,2013-01-24 00:55:00
7:15 PM,14.4,3.2,61,30.21,4.0,NNW,24.2,32.2,N/A,,Mostly Cloudy,340,2013-01-24 01:15:00
7:55 PM,12.7,2.8,65,30.23,7.0,North,25.3,28.8,N/A,,Scattered Clouds,350,2013-01-24 01:55:00
8:35 PM,11.7,1.9,65,30.27,5.0,North,23.0,28.8,N/A,,Scattered Clouds,360,2013-01-24 02:35:00
8:55 PM,10.9,1.2,65,30.28,4.0,North,21.9,26.5,N/A,,Mostly Cloudy,350,2013-01-24 02:55:00
9:15 PM,10.2,-0.4,62,30.30,10.0,North,17.3,25.3,N/A,,Scattered Clouds,350,2013-01-24 03:15:00
9:35 PM,9.5,-0.9,63,30.30,10.0,North,19.6,25.3,N/A,,Clear,350,2013-01-24 03:35:00
9:55 PM,9.1,-2.2,60,30.32,10.0,NNW,17.3,23.0,N/A,,Clear,340,2013-01-24 03:55:00
10:15 PM,8.6,-4.0,57,30.34,10.0,North,21.9,25.3,N/A,,Clear,350,2013-01-24 04:15:00
10:35 PM,8.1,-4.9,56,30.35,10.0,North,18.4,24.2,N/A,,Clear,350,2013-01-24 04:35:00
10:55 PM,6.8,-6.9,54,30.37,10.0,North,16.1,25.3,N/A,,Clear,350,2013-01-24 04:55:00
11:15 PM,6.1,-6.9,55,30.38,10.0,NNW,18.4,24.2,N/A,,Clear,340,2013-01-24 05:15:00
11:35 PM,5.7,-7.2,55,30.40,10.0,North,16.1,-,N/A,,Clear,350,2013-01-24 05:35:00
11:55 PM,5.2,-6.9,58,30.41,10.0,NNW,13.8,18.4,N/A,,Clear,340,2013-01-24 05:55:00